Regional Weather Roundup
Issued by NWS

Home | Current Version | Previous Version | Text Only | Print | Product List | Glossary Off
Versions: 1 2 3 4 5 6 7 8 9 10 11 12 13 14 15 16 17 18 19 20 21 22 23 24 25 26 27 28 29 30 31 32 33 34 35 36 37 38 39 40 41 42 43 44 45 46 47 48 49 50

000
ASUS45 KBOU 261707
RWRCO

WEATHER ROUNDUP FOR COLORADO
NATIONAL WEATHER SERVICE DENVER/BOULDER CO
1100 AM MDT TUE AUG 26 2014

NOTE: "FAIR" INDICATES FEW OR NO CLOUDS BELOW 12000 FEET WITH NO
SIGNIFICANT WEATHER AND/OR OBSTRUCTIONS TO VISIBILITY.

COZ001>005-013-030-031-261800-
...NORTHWEST COLORADO...

CITY           SKY/WX    TMP DP  RH WIND       PRES   REMARKS
CRAIG          PTSUNNY   57  51  80 CALM      30.31R
HAYDEN         PTSUNNY   55  48  76 NW7       30.34R
MEEKER         PTSUNNY   58  50  75 MISG      30.31R
MOUNT WERNER   NOT AVBL
STEAMBOAT SPGS CLOUDY    58  49  70 NW5       30.34R
WALDEN         MOSUNNY   55  45  67 CALM      30.39R
$$

COZ006>008-011-261800-
...WEST CENTRAL VALLEYS...

CITY           SKY/WX    TMP DP  RH WIND       PRES   REMARKS
GRAND JUNCTION CLOUDY    73  47  39 S5        30.18R
MONTROSE       MOSUNNY   77  44  30 E10       30.25S
EAGLE          MOSUNNY   63  46  55 CALM      30.35S
RIFLE          PTSUNNY   67  49  52 N3        30.24S
DELTA          PTSUNNY   80  42  25 CALM      30.22S
NUCLA          MOSUNNY   73  45  35 N6        30.29S
$$

COZ017>023-064>068-261800-
...SOUTHWEST COLORADO...

CITY           SKY/WX    TMP DP  RH WIND       PRES   REMARKS
DURANGO        CLOUDY    66  48  52 E5        30.34R
CORTEZ         MOSUNNY   74  46  36 VRB3      30.27R
PAGOSA SPRINGS   N/A    N/A N/A N/A MISG        N/A
TELLURIDE      PTSUNNY   63  39  42 CALM      30.45S
WOLF CREEK PAS NOT AVBL
$$

COZ009-010-012-014-032>034-037-058>063-261800-
...CENTRAL COLORADO...

CITY           SKY/WX    TMP DP  RH WIND       PRES   REMARKS
ASPEN          PTSUNNY   70  41  34 CALM      30.35S
BUENA VISTA    MOSUNNY   63  46  55 CALM      30.42S
COPPER MTN     PTSUNNY   54  34  47 W9G18     30.66R
BERTHOUD PASS  FAIR      45  45 100 MISG      30.69R
COTTONWOOD PAS CLOUDY    57  45  62 CALM      30.53S
GUNNISON       PTSUNNY   57  43  58 SW3       30.44S
KREMMLING      PTSUNNY   59  41  51 CALM      30.38F
LEADVILLE      PTSUNNY   56  42  59 S9        30.50S
SALIDA         CLOUDY    60  51  73 S3        30.47S
SUNLIGHT       PTSUNNY   57  46  67 CALM      30.58R
WILKERSON PASS NOT AVBL
$$

COZ069>075-261800-
...SAN LUIS VALLEY/SANGRE DE CRISTO MOUNTAINS...

CITY           SKY/WX    TMP DP  RH WIND       PRES   REMARKS
ALAMOSA        PTSUNNY   67  47  48 W7        30.38R
LA VETA PASS   NOT AVBL
SAGUACHE       PTSUNNY   61  45  55 N3        30.42R
$$

COZ035-036-038>040-261800-
...NORTHERN COLORADO FRONT RANGE...

CITY           SKY/WX    TMP DP  RH WIND       PRES   REMARKS
DENVER INTL AP PTSUNNY   70  57  63 S9        30.24F
DMNS CITY PARK   N/A     73  56  55 S3        30.23F
AURORA         PTSUNNY   69  56  63 SE6       30.26F
FRONT RANGE AP PTSUNNY   72  59  64 S7        30.26S
ERIE MUNI ARPT PTSUNNY   70  58  65 CALM      30.23S
BOULDER MUN AP MOSUNNY   70  59  68 E5        30.23S
CENTENNIAL     PTSUNNY   69  55  60 SE6       30.26S
BROOMFIELD     MOSUNNY   70  57  64 VRB5      30.26S
FORT COLLINS   CLOUDY    68  57  68 S6        30.24S
LONGMONT       CLOUDY    74  58  57 E3        30.24S
$$

COZ041-046-047-076>085-087-088-261800-
...PIKES PEAK/PALMER DIVIDE AND SOUTHERN FOOTHILLS...

CITY           SKY/WX    TMP DP  RH WIND       PRES   REMARKS
COLO. SPRINGS  PTSUNNY   63  55  75 S7        30.33R
A. F. ACADEMY  PTSUNNY   61  55  80 S8        30.33R
ELLICOTT       PTSUNNY   63  55  75 SE3       30.32R
FALCON         PTSUNNY   63  55  75 CALM      30.36S
FORT CARSON    CLOUDY    64  55  74 SE6       30.31R
LIMON          PTSUNNY   66  57  72 S9        30.27R
MONUMENT HILL  PTSUNNY   63  54  72 S10       30.33S
TRINIDAD       PTSUNNY   71  55  56 NW8       30.30S
$$

COZ042>045-048>051-090-091-261800-
...NORTHEAST COLORADO...

CITY           SKY/WX    TMP DP  RH WIND       PRES   REMARKS
GREELEY ARPT   PTSUNNY   73  54  49 S13       30.23S
AKRON          PTSUNNY   71  57  61 S9        30.22S
BURLINGTON     CLOUDY    70  61  73 SE6       30.23R
WRAY             N/A     75  61  60 SE12      30.20R
STERLING       PTSUNNY   75  61  60 S3        30.19S
HOLYOKE        PTSUNNY   73  61  64 E3        30.20S
FORT MORGAN    PTSUNNY   71  55  56 S8        30.23S
$$

COZ086-089-092>099-261800-
...SOUTHEAST COLORADO...

CITY           SKY/WX    TMP DP  RH WIND       PRES   REMARKS
PUEBLO         PTSUNNY   68  56  65 CALM      30.26R
LA JUNTA       CLOUDY    68  58  70 SW3       30.23S
LAMAR          MOSUNNY   77  59  53 VRB5      30.18R
SPRINGFIELD      N/A     82  54  37 SW15G24   30.19S
$$



USA.gov is the U.S. government's official web portal to all federal, state and local government web resources and services.